TimeEDT,TemperatureF,Dew PointF,Humidity,Sea Level PressureIn,VisibilityMPH,Wind Direction,Wind SpeedMPH,Gust SpeedMPH,PrecipitationIn,Events,Conditions,WindDirDegrees,DateUTC
12:15 AM,62.6,62.6,100,30.06,5.0,East,4.6,-,N/A,,Overcast,80,2013-04-04 04:15:00
12:35 AM,62.6,62.6,100,30.07,5.0,ENE,4.6,-,N/A,,Overcast,60,2013-04-04 04:35:00
12:55 AM,64.4,64.4,100,30.07,5.0,NE,4.6,-,N/A,,Overcast,50,2013-04-04 04:55:00
1:15 AM,64.4,64.4,100,30.06,5.0,NE,4.6,-,N/A,,Mostly Cloudy,50,2013-04-04 05:15:00
1:35 AM,64.4,64.4,100,30.05,5.0,NE,4.6,-,N/A,,Mostly Cloudy,50,2013-04-04 05:35:00
1:55 AM,64.4,64.4,100,30.05,5.0,Calm,Calm,-,N/A,,Overcast,0,2013-04-04 05:55:00
2:15 AM,64.4,64.4,100,30.04,7.0,East,4.6,-,N/A,,Overcast,80,2013-04-04 06:15:00
2:35 AM,64.4,64.4,100,30.02,7.0,East,6.9,-,N/A,,Overcast,80,2013-04-04 06:35:00
2:55 AM,64.4,64.4,100,30.01,7.0,East,6.9,-,N/A,Rain,Light Rain,80,2013-04-04 06:55:00
3:15 AM,64.4,64.4,100,30.00,7.0,ENE,4.6,-,N/A,Rain,Light Rain,70,2013-04-04 07:15:00
3:35 AM,64.4,64.4,100,30.00,6.0,Calm,Calm,-,N/A,Rain,Light Rain,0,2013-04-04 07:35:00
3:55 AM,64.4,64.4,100,29.99,7.0,ENE,4.6,-,N/A,,Overcast,70,2013-04-04 07:55:00
4:15 AM,64.4,64.4,100,29.99,8.0,ENE,3.5,-,N/A,,Overcast,60,2013-04-04 08:15:00
4:35 AM,64.4,64.4,100,29.98,7.0,Calm,Calm,-,N/A,,Overcast,0,2013-04-04 08:35:00
4:55 AM,64.4,64.4,100,29.98,7.0,Calm,Calm,-,N/A,,Overcast,0,2013-04-04 08:55:00
5:15 AM,64.4,64.4,100,29.97,7.0,Calm,Calm,-,N/A,,Mostly Cloudy,0,2013-04-04 09:15:00
5:35 AM,64.4,64.4,100,29.97,8.0,Calm,Calm,-,N/A,,Mostly Cloudy,0,2013-04-04 09:35:00
5:55 AM,64.4,64.4,100,29.98,8.0,Calm,Calm,-,N/A,,Overcast,0,2013-04-04 09:55:00
6:15 AM,64.4,64.4,100,29.97,7.0,ENE,3.5,-,N/A,,Overcast,70,2013-04-04 10:15:00
6:35 AM,64.4,64.4,100,29.98,7.0,Calm,Calm,-,N/A,,Mostly Cloudy,0,2013-04-04 10:35:00
6:50 AM,64.4,64.4,100,29.98,6.0,East,5.8,-,N/A,,Mostly Cloudy,100,2013-04-04 10:50:00
7:50 AM,64.4,64.4,100,29.96,3.0,ESE,9.2,-,N/A,Rain,Light Rain,110,2013-04-04 11:50:00
8:50 AM,66.2,66.2,100,29.97,5.0,Variable,5.8,-,N/A,,Overcast,0,2013-04-04 12:50:00
9:50 AM,68.0,68.0,100,29.96,6.0,South,5.8,-,N/A,,Overcast,180,2013-04-04 13:50:00
10:25 AM,71.6,68.0,88,29.96,7.0,SSW,4.6,-,N/A,,Overcast,210,2013-04-04 14:25:00
10:50 AM,71.6,68.0,88,29.96,7.0,South,6.9,-,N/A,,Overcast,180,2013-04-04 14:50:00
12:50 PM,75.2,66.2,73,29.95,10.0,SSW,23.0,-,N/A,,Mostly Cloudy,210,2013-04-04 16:50:00
1:50 PM,77.0,66.2,69,29.92,10.0,SSW,15.0,24.2,N/A,,Mostly Cloudy,210,2013-04-04 17:50:00
2:50 PM,75.2,66.2,73,29.92,10.0,South,11.5,-,N/A,,Overcast,180,2013-04-04 18:50:00
4:50 PM,75.2,64.4,69,29.88,10.0,SSW,13.8,27.6,N/A,,Mostly Cloudy,210,2013-04-04 20:50:00
5:50 PM,73.4,64.4,73,29.88,10.0,North,-9999.0,-,N/A,,Mostly Cloudy,0,2013-04-04 21:50:00
6:50 PM,73.4,64.4,73,29.88,10.0,West,12.7,23.0,N/A,,Mostly Cloudy,270,2013-04-04 22:50:00
7:50 PM,71.6,64.4,78,29.87,10.0,SW,11.5,-,N/A,,Mostly Cloudy,230,2013-04-04 23:50:00
8:15 PM,69.8,64.4,83,29.88,10.0,SW,9.2,-,N/A,,Overcast,220,2013-04-05 00:15:00
8:35 PM,68.0,64.4,88,29.89,10.0,SSW,8.1,-,N/A,,Partly Cloudy,210,2013-04-05 00:35:00
8:55 PM,68.0,64.4,88,29.90,10.0,SW,5.8,-,N/A,,Clear,220,2013-04-05 00:55:00
9:15 PM,68.0,64.4,88,29.90,10.0,Calm,Calm,-,N/A,,Clear,0,2013-04-05 01:15:00
9:35 PM,66.2,62.6,88,29.91,10.0,Calm,Calm,-,N/A,,Clear,0,2013-04-05 01:35:00
9:55 PM,64.4,64.4,100,29.91,10.0,Calm,Calm,-,N/A,,Clear,0,2013-04-05 01:55:00
10:15 PM,64.4,64.4,100,29.92,10.0,Calm,Calm,-,N/A,,Scattered Clouds,0,2013-04-05 02:15:00
10:35 PM,62.6,62.6,100,29.92,10.0,Calm,Calm,-,N/A,,Mostly Cloudy,0,2013-04-05 02:35:00
10:55 PM,62.6,62.6,100,29.92,10.0,Calm,Calm,-,N/A,,Scattered Clouds,0,2013-04-05 02:55:00
11:15 PM,62.6,62.6,100,29.92,10.0,Calm,Calm,-,N/A,,Clear,0,2013-04-05 03:15:00
11:35 PM,62.6,62.6,100,29.91,10.0,Calm,Calm,-,N/A,,Partly Cloudy,0,2013-04-05 03:35:00
11:55 PM,62.6,62.6,100,29.91,10.0,Calm,Calm,-,N/A,,Mostly Cloudy,0,2013-04-05 03:55:00